Regional Weather Roundup
Issued by NWS

Home | Current Version | Previous Version | Text Only | Print | Product List | Glossary Off
Versions: 1 2 3 4 5 6 7 8 9 10 11 12 13 14 15 16 17 18 19 20 21 22 23 24 25 26 27 28 29 30 31 32 33 34 35 36 37 38 39 40 41 42 43 44 45 46 47 48 49 50

000
ASUS45 KBOU 031807
RWRCO

WEATHER ROUNDUP FOR COLORADO
NATIONAL WEATHER SERVICE DENVER/BOULDER CO
1200 PM MDT THU SEP 03 2015

NOTE: "FAIR" INDICATES FEW OR NO CLOUDS BELOW 12000 FEET WITH NO
SIGNIFICANT WEATHER AND/OR OBSTRUCTIONS TO VISIBILITY.

COZ001>005-013-030-031-031900-
...NORTHWEST COLORADO...

CITY           SKY/WX    TMP DP  RH WIND       PRES   REMARKS
CRAIG          PTSUNNY   76  47  35 SW14      30.12F
HAYDEN         PTSUNNY   73  43  33 W14       30.14F
MEEKER         CLOUDY    74  49  41 S13G23    30.14F
MOUNT WERNER   NOT AVBL
STEAMBOAT SPGS PTSUNNY   71  44  37 W9        30.17F
WALDEN         PTSUNNY   70  37  30 W13       30.22F
$$

COZ006>008-011-031900-
...WEST CENTRAL VALLEYS...

CITY           SKY/WX    TMP DP  RH WIND       PRES   REMARKS
GRAND JUNCTION CLOUDY    69  53  56 SE22G31   30.11S
MONTROSE       CLOUDY    63  55  75 S3        30.22F
EAGLE          CLOUDY    66  48  52 SW22G29   30.20S
RIFLE          LGT RAIN  62  55  77 VRB5      30.16R
DELTA          CLOUDY    69  56  63 NE6       30.18F
NUCLA          CLOUDY    73  48  40 N3        30.20F
$$

COZ017>023-064>068-031900-
...SOUTHWEST COLORADO...

CITY           SKY/WX    TMP DP  RH WIND       PRES   REMARKS
DURANGO        PTSUNNY   72  45  37 SW7       30.21F
CORTEZ         SUNNY     78  48  34 S14       30.17F
PAGOSA SPRINGS PTSUNNY   66  44  46 CALM      30.29F
TELLURIDE      CLOUDY    59  51  73 SE3       30.39F
WOLF CREEK PAS NOT AVBL
$$

COZ009-010-012-014-032>034-037-058>063-031900-
...CENTRAL COLORADO...

CITY           SKY/WX    TMP DP  RH WIND       PRES   REMARKS
ASPEN          RAIN      54  51  90 VRB3      30.32S FOG
BUENA VISTA    CLOUDY    67  42  39 W13G20    30.26F
COPPER MTN     TSTM      46  39  76 SW8G21    30.53S
BERTHOUD PASS  CLOUDY    41  30  65 E10       30.57F THUNDER
COTTONWOOD PAS CLOUDY    59  41  51 W8        30.39F
GUNNISON       PTSUNNY   55  48  76 SW6       30.34F
KREMMLING      CLOUDY    66  45  45 CALM      30.21F
LEADVILLE      LGT RAIN  47  47 100 SE5       30.41R
MONARCH PASS   CLOUDY    48  41  76 W13       30.63F
SALIDA         CLOUDY    73  45  37 W6        30.29F
SUNLIGHT       CLOUDY    46  45  93 SW3       30.49S
WILKERSON PASS LGT RAIN  54  37  54 CALM      30.51F
$$

COZ069>075-031900-
...SAN LUIS VALLEY/SANGRE DE CRISTO MOUNTAINS...

CITY           SKY/WX    TMP DP  RH WIND       PRES   REMARKS
ALAMOSA        PTSUNNY   69  48  47 VRB5      30.24F
LA VETA PASS   PTSUNNY   61  45  55 MISG      30.39F
SAGUACHE       CLOUDY    66  45  45 SW3       30.28F
$$

COZ035-036-038>040-031900-
...NORTHERN COLORADO FRONT RANGE...

CITY           SKY/WX    TMP DP  RH WIND       PRES   REMARKS
DENVER INTL AP CLOUDY    79  44  28 NE7       30.06F
DMNS CITY PARK   N/A     76  49  37 E8        30.05F
AURORA         CLOUDY    77  46  32 NW3       30.08F
FRONT RANGE AP CLOUDY    79  43  27 N7        30.07F
ERIE MUNI ARPT CLOUDY    81  41  24 S10       30.03S
BOULDER MUN AP CLOUDY    79  46  31 S6        30.03F
CENTENNIAL     CLOUDY    76  46  34 NW6       30.09F
BROOMFIELD     CLOUDY    79  45  29 S8        30.07F
FORT COLLINS   CLOUDY    77  48  36 S8        30.01F
LONGMONT       CLOUDY    79  53  40 CALM      30.03S
$$

COZ041-046-047-076>085-087-088-031900-
...PIKES PEAK/PALMER DIVIDE AND SOUTHERN FOOTHILLS...

CITY           SKY/WX    TMP DP  RH WIND       PRES   REMARKS
COLO. SPRINGS  PTSUNNY   83  42  23 N21G28    30.09F
A. F. ACADEMY  CLOUDY    79  42  26 NW18      30.11F
ELLICOTT       PTSUNNY  N/A N/A N/A NE18G25   30.06F
FALCON         PTSUNNY   78  43  28 MISG      30.14F
FORT CARSON    CLOUDY    82  45  27 N17G23    30.05F
LIMON          CLOUDY    82  45  27 N13       30.02F
MONUMENT HILL  CLOUDY    73  41  31 N9        30.17F
TRINIDAD       PTSUNNY   84  41  21 CALM      30.04F
$$

COZ042>045-048>051-090-091-031900-
...NORTHEAST COLORADO...

CITY           SKY/WX    TMP DP  RH WIND       PRES   REMARKS
GREELEY ARPT   CLOUDY    77  52  41 S10       30.01S
AKRON          PTSUNNY   83  44  25 W8        29.98R
BURLINGTON     PTSUNNY   90  49  24 S5        29.93F
WRAY           CLOUDY    97  41  14 E8        29.88F
STERLING       PTSUNNY   88  50  27 E3        29.91F
HOLYOKE        MOSUNNY   95  46  18 CALM      29.88F
FORT MORGAN    CLOUDY    78  49  35 SW16G22   30.02R
$$

COZ086-089-092>099-031900-
...SOUTHEAST COLORADO...

CITY           SKY/WX    TMP DP  RH WIND       PRES   REMARKS
PUEBLO         PTSUNNY   90  42  18 CALM      29.95F
LA JUNTA       PTSUNNY   92  45  19 W7        29.91F
LAMAR          MOSUNNY   91  51  25 W6        29.87F
SPRINGFIELD      N/A     91  44  19 S14G20    29.94F
$$




USA.gov is the U.S. government's official web portal to all federal, state and local government web resources and services.